User: anonymous   Login
Location: Unspecified
(0.0000°N, 0.0000°E)
Time: 07:33:09
(UTC+00:00)
Language:

LEMUR 2 ANUBHAVTHAKUR - Orbit

View from above orbital plane
View from above orbital plane
View from above satellite
View from above satellite

Ground track
Ground track

The orbit data is extracted from the following two-line orbital elements,

1 41873U 16062E   19082.91122304 +.00001417 +00000-0 +73686-4 0  9997
2 41873 051.6569 264.8646 0004086 007.9601 352.1441 15.22895064129121
Epoch (UTC): 23 March 2019 21:52:09
Eccentricity: 0.0004086
inclination: 51.6569°
perigee height: 494 km
apogee height: 500 km
right ascension of ascending node: 264.8646°
argument of perigee: 7.9601°
revolutions per day: 15.22895064
mean anomaly at epoch: 352.1441°
orbit number at epoch: 12912

The dashed part of the orbit path shows where the satellite is in the earth's shadow,  

DLR